| time (UTC) | temp F | wind direction | speed knots | gust knots | rain 1hr in | rain 24hr in | rain mn in | humidity % | barometer mb |
| 20260902194740 | 64 | 79 | 0.0 | 0.0 | 0.00 | 0.05 | 0.05 | 99 | 1017.4 |
| 20260902194235 | 64 | 76 | 0.9 | 1.7 | 0.00 | 0.05 | 0.05 | 99 | 1017.3 |
| 20260902193731 | 64 | 90 | 0.9 | 0.9 | 0.00 | 0.05 | 0.05 | 99 | 1017.3 |
| 20260902193226 | 64 | 81 | 0.0 | 0.9 | 0.00 | 0.05 | 0.05 | 99 | 1017.4 |
| 20260902192724 | 64 | 68 | 0.0 | 0.9 | 0.00 | 0.05 | 0.05 | 99 | 1017.2 |
| 20260902192219 | 64 | 57 | 0.9 | 1.7 | 0.00 | 0.05 | 0.05 | 99 | 1017.4 |
| 20260902191718 | 63 | 88 | 0.0 | 0.9 | 0.00 | 0.05 | 0.05 | 99 | 1017.5 |
| 20260902191213 | 64 | 153 | 0.0 | 0.9 | 0.00 | 0.05 | 0.05 | 99 | 1017.6 |
| 20260902190708 | 63 | 121 | 0.9 | 1.7 | 0.00 | 0.05 | 0.05 | 99 | 1017.7 |
| 20260902190203 | 63 | 111 | 0.0 | 0.0 | 0.00 | 0.05 | 0.05 | 99 | 1017.8 |
| 20260902185659 | 63 | 107 | 0.0 | 0.9 | 0.00 | 0.05 | 0.05 | 99 | 1018.0 |
| 20260902185154 | 63 | 73 | 0.0 | 0.9 | 0.00 | 0.05 | 0.05 | 99 | 1018.1 |
| 20260902184649 | 63 | 90 | 0.9 | 0.9 | 0.00 | 0.05 | 0.05 | 99 | 1018.2 |
| 20260902184145 | 63 | 162 | 0.0 | 0.0 | 0.00 | 0.05 | 0.05 | 99 | 1018.2 |
| 20260902183641 | 64 | 168 | 0.9 | 0.9 | 0.00 | 0.05 | 0.05 | 99 | 1018.2 |
| 20260902183137 | 63 | 163 | 0.0 | 0.9 | 0.00 | 0.05 | 0.05 | 99 | 1018.5 |
| 20260902182633 | 64 | 140 | 0.0 | 0.9 | 0.00 | 0.05 | 0.05 | 99 | 1018.4 |
| 20260902182130 | 64 | 124 | 0.0 | 0.0 | 0.00 | 0.05 | 0.05 | 99 | 1018.4 |
| 20260902181625 | 63 | 124 | 0.9 | 0.9 | 0.00 | 0.05 | 0.05 | 99 | 1018.9 |
| 20260902181124 | 63 | 124 | 0.0 | 0.0 | 0.00 | 0.05 | 0.05 | 99 | 1018.7 |
| 20260902180619 | 63 | 127 | 0.0 | 0.0 | 0.00 | 0.05 | 0.05 | 99 | 1018.9 |
| 20260902180116 | 63 | 132 | 0.0 | 0.9 | 0.00 | 0.05 | 0.05 | 99 | 1018.7 |
| 20260902175615 | 63 | 83 | 0.0 | 0.9 | 0.00 | 0.05 | 0.05 | 99 | 1018.9 |
| 20260902175110 | 63 | 74 | 0.0 | 0.9 | 0.00 | 0.05 | 0.05 | 99 | 1019.0 |
| 20260902174606 | 64 | 88 | 0.0 | 0.0 | 0.07 | 0.05 | 0.05 | 99 | 1018.6 |
| 20260902174102 | 63 | 90 | 0.0 | 0.0 | 0.07 | 0.05 | 0.05 | 99 | 1018.7 |
| 20260902173556 | 64 | 117 | 0.9 | 0.9 | 0.00 | 0.04 | 0.04 | 99 | 1018.5 |
| 20260902173052 | 64 | 122 | 0.0 | 0.9 | 0.00 | 0.04 | 0.04 | 99 | 1018.6 |
| 20260902172550 | 63 | 122 | 0.0 | 0.9 | 0.05 | 0.04 | 0.04 | 99 | 1018.5 |
| 20260902172045 | 63 | 122 | 0.0 | 0.0 | 0.05 | 0.04 | 0.04 | 99 | 1018.9 |
| 20260902171542 | 63 | 122 | 0.0 | 0.0 | 0.00 | 0.03 | 0.03 | 99 | 1019.2 |
| 20260902171037 | 63 | 121 | 0.9 | 0.9 | 0.00 | 0.03 | 0.03 | 99 | 1018.7 |
| 20260902170531 | 63 | 128 | 0.0 | 0.0 | 0.07 | 0.03 | 0.03 | 99 | 1018.7 |
| 20260902170028 | 63 | 135 | 0.0 | 0.0 | 0.07 | 0.03 | 0.03 | 99 | 1018.5 |
| 20260902165522 | 63 | 135 | 0.0 | 0.9 | 0.00 | 0.02 | 0.02 | 99 | 1018.9 |
| 20260902165021 | 63 | 136 | 0.9 | 0.9 | 0.00 | 0.02 | 0.02 | 99 | 1018.9 |
| 20260902164517 | 64 | 154 | 0.9 | 0.9 | 0.00 | 0.02 | 0.02 | 99 | 1018.7 |
| 20260902164015 | 63 | 154 | 0.0 | 0.0 | 0.00 | 0.02 | 0.02 | 99 | 1018.5 |
| 20260902163511 | 63 | 155 | 0.0 | 0.0 | 0.00 | 0.02 | 0.02 | 99 | 1018.7 |
| 20260902163010 | 64 | 154 | 0.0 | 0.0 | 0.00 | 0.02 | 0.02 | 99 | 1018.6 |
| 20260902162504 | 63 | 154 | 0.0 | 0.9 | 0.00 | 0.02 | 0.02 | 99 | 1018.6 |
| 20260902161959 | 63 | 188 | 0.0 | 0.0 | 0.00 | 0.02 | 0.02 | 99 | 1018.6 |
| 20260902161454 | 63 | 117 | 0.0 | 0.0 | 0.00 | 0.02 | 0.02 | 99 | 1018.6 |
| 20260902160950 | 64 | 147 | 1.7 | 2.6 | 0.00 | 0.02 | 0.02 | 99 | 1018.7 |
| 20260902160445 | 63 | 184 | 0.0 | 0.9 | 0.00 | 0.02 | 0.02 | 99 | 1018.7 |
| 20260902155943 | 63 | 165 | 0.0 | 0.9 | 0.00 | 0.02 | 0.02 | 99 | 1018.7 |
| 20260902155439 | 63 | 193 | 0.0 | 0.0 | 0.00 | 0.02 | 0.02 | 99 | 1018.7 |
| 20260902154932 | 63 | 187 | 0.9 | 0.9 | 0.00 | 0.02 | 0.02 | 99 | 1018.5 |
| 20260902154428 | 63 | 70 | 0.0 | 0.0 | 0.00 | 0.02 | 0.02 | 99 | 1018.6 |
| 20260902153927 | 63 | 89 | 0.0 | 0.9 | 0.00 | 0.02 | 0.02 | 99 | 1018.3 |
| 20260902153426 | 63 | 87 | 0.9 | 0.9 | 0.00 | 0.02 | 0.02 | 99 | 1018.2 |
| 20260902152922 | 63 | 102 | 0.0 | 0.9 | 0.00 | 0.02 | 0.02 | 99 | 1018.4 |
| 20260902152418 | 63 | 102 | 0.0 | 0.0 | 0.00 | 0.02 | 0.02 | 99 | 1018.9 |
| 20260902151913 | 63 | 103 | 0.0 | 0.0 | 0.00 | 0.02 | 0.02 | 99 | 1018.5 |
| 20260902151409 | 62 | 112 | 0.9 | 0.9 | 0.00 | 0.02 | 0.02 | 99 | 1018.9 |
| 20260902150903 | 63 | 321 | 0.0 | 0.0 | 0.00 | 0.02 | 0.02 | 99 | 1019.0 |
| 20260902150359 | 62 | 162 | 0.9 | 1.7 | 0.00 | 0.02 | 0.02 | 99 | 1018.9 |
| 20260902145858 | 62 | 154 | 0.0 | 0.9 | 0.00 | 0.02 | 0.02 | 99 | 1018.6 |
| 20260902145353 | 63 | 159 | 0.9 | 0.9 | 0.00 | 0.02 | 0.02 | 99 | 1018.9 |
| 20260902144843 | 63 | 169 | 0.9 | 0.9 | 0.00 | 0.02 | 0.02 | 99 | 1018.5 |
| 20260902144339 | 62 | 80 | 0.0 | 0.9 | 0.00 | 0.02 | 0.02 | 99 | 1018.7 |
| 20260902143834 | 62 | 139 | 0.9 | 0.9 | 0.00 | 0.02 | 0.02 | 99 | 1018.9 |
| 20260902143334 | 62 | 126 | 0.0 | 0.0 | 0.00 | 0.02 | 0.02 | 99 | 1019.3 |
| 20260902142830 | 62 | 136 | 0.0 | 0.0 | 0.00 | 0.02 | 0.02 | 99 | 1019.2 |
| 20260902142326 | 62 | 137 | 0.0 | 0.0 | 0.00 | 0.02 | 0.02 | 99 | 1019.3 |
| 20260902141820 | 62 | 137 | 0.0 | 0.0 | 0.00 | 0.02 | 0.02 | 99 | 1019.4 |
| 20260902141316 | 62 | 131 | 0.0 | 0.0 | 0.00 | 0.02 | 0.02 | 99 | 1019.0 |
| 20260902140816 | 62 | 132 | 0.0 | 0.0 | 0.00 | 0.02 | 0.02 | 99 | 1018.9 |
| 20260902140311 | 62 | 136 | 0.0 | 0.0 | 0.00 | 0.02 | 0.02 | 99 | 1019.0 |
| 20260902135810 | 62 | 136 | 0.0 | 0.9 | 0.00 | 0.02 | 0.02 | 99 | 1018.7 |
| 20260902135307 | 62 | 143 | 0.9 | 0.9 | 0.00 | 0.02 | 0.02 | 99 | 1018.6 |
| 20260902134805 | 62 | 147 | 0.9 | 0.9 | 0.00 | 0.02 | 0.02 | 99 | 1018.7 |
| 20260902134301 | 62 | 189 | 0.9 | 1.7 | 0.00 | 0.02 | 0.02 | 99 | 1018.7 |
| 20260902133756 | 62 | 137 | 0.9 | 1.7 | 0.00 | 0.02 | 0.02 | 99 | 1018.4 |
| 20260902133255 | 62 | 52 | 0.9 | 0.9 | 0.00 | 0.02 | 0.02 | 99 | 1018.4 |
| 20260902132750 | 62 | 89 | 0.9 | 0.9 | 0.00 | 0.02 | 0.02 | 99 | 1018.4 |
| 20260902132246 | 62 | 87 | 0.0 | 0.9 | 0.00 | 0.02 | 0.02 | 99 | 1018.6 |
| 20260902131742 | 62 | 133 | 0.0 | 0.0 | 0.00 | 0.02 | 0.02 | 99 | 1018.7 |
| 20260902131238 | 62 | 132 | 0.0 | 0.0 | 0.00 | 0.02 | 0.02 | 99 | 1018.4 |
| 20260902130737 | 62 | 164 | 0.0 | 0.9 | 0.00 | 0.02 | 0.02 | 99 | 1018.4 |
| 20260902130233 | 62 | 164 | 0.0 | 0.9 | 0.00 | 0.02 | 0.02 | 99 | 1018.5 |
| 20260902125728 | 62 | 166 | 0.0 | 0.0 | 0.00 | 0.02 | 0.02 | 99 | 1018.5 |
| 20260902125225 | 62 | 86 | 0.0 | 0.0 | 0.00 | 0.02 | 0.02 | 99 | 1018.3 |
| 20260902124721 | 62 | 107 | 0.0 | 0.9 | 0.05 | 0.02 | 0.02 | 99 | 1018.1 |
| 20260902124215 | 62 | 109 | 0.0 | 0.9 | 0.05 | 0.02 | 0.02 | 99 | 1018.2 |
| 20260902123711 | 62 | 100 | 0.9 | 0.9 | 0.00 | 0.01 | 0.01 | 99 | 1018.2 |
| 20260902123207 | 62 | 132 | 0.0 | 0.0 | 0.00 | 0.01 | 0.01 | 99 | 1018.2 |
| 20260902122706 | 62 | 89 | 0.0 | 0.0 | 0.00 | 0.01 | 0.01 | 99 | 1018.2 |
| 20260902122202 | 62 | 95 | 0.9 | 0.9 | 0.00 | 0.01 | 0.01 | 99 | 1018.2 |
| 20260902121656 | 62 | 83 | 0.0 | 0.0 | 0.00 | 0.01 | 0.01 | 99 | 1018.2 |
| 20260902121151 | 62 | 105 | 0.9 | 0.9 | 0.00 | 0.01 | 0.01 | 99 | 1018.1 |
| 20260902120647 | 62 | 116 | 0.9 | 1.7 | 0.00 | 0.01 | 0.01 | 99 | 1017.9 |
| 20260902120143 | 62 | 199 | 1.7 | 2.6 | 0.00 | 0.01 | 0.01 | 99 | 1017.8 |
| 20260902115637 | 62 | 89 | 0.9 | 0.9 | 0.00 | 0.01 | 0.01 | 99 | 1017.8 |
| 20260902115133 | 62 | 171 | 0.0 | 0.0 | 0.00 | 0.01 | 0.01 | 99 | 1017.8 |
| 20260902114630 | 62 | 167 | 0.9 | 0.9 | 0.00 | 0.01 | 0.01 | 99 | 1017.6 |
| 20260902114130 | 62 | 103 | 0.9 | 1.7 | 0.00 | 0.01 | 0.01 | 99 | 1017.8 |
| 20260902113625 | 62 | 40 | 0.9 | 0.9 | 0.00 | 0.01 | 0.01 | 99 | 1017.8 |
| 20260902113120 | 62 | 64 | 0.0 | 0.0 | 0.00 | 0.01 | 0.01 | 99 | 1017.9 |
| 20260902112615 | 62 | 64 | 0.0 | 0.0 | 0.00 | 0.01 | 0.01 | 99 | 1018.0 |
| 20260902112112 | 62 | 64 | 0.0 | 0.0 | 0.00 | 0.01 | 0.01 | 99 | 1018.0 |
| 20260902111607 | 62 | 73 | 0.0 | 0.0 | 0.00 | 0.01 | 0.01 | 99 | 1017.8 |
| 20260902111102 | 62 | 73 | 0.9 | 0.9 | 0.00 | 0.01 | 0.01 | 99 | 1017.9 |
| 20260902110559 | 62 | 100 | 0.0 | 0.0 | 0.00 | 0.01 | 0.01 | 99 | 1018.0 |
| 20260902110054 | 62 | 100 | 0.0 | 0.9 | 0.00 | 0.01 | 0.01 | 99 | 1017.7 |
| 20260902105549 | 62 | 174 | 0.9 | 0.9 | 0.00 | 0.01 | 0.01 | 99 | 1017.6 |
| 20260902105049 | 62 | 189 | 0.9 | 0.9 | 0.00 | 0.01 | 0.01 | 99 | 1017.6 |
| 20260902104544 | 62 | 110 | 0.0 | 0.9 | 0.00 | 0.01 | 0.01 | 99 | 1017.4 |
| 20260902104039 | 62 | 98 | 0.0 | 0.0 | 0.00 | 0.01 | 0.01 | 99 | 1017.7 |
| 20260902103534 | 62 | 82 | 0.9 | 0.9 | 0.00 | 0.01 | 0.01 | 99 | 1017.6 |
| 20260902103030 | 62 | 93 | 0.9 | 0.9 | 0.00 | 0.01 | 0.01 | 99 | 1017.8 |
| 20260902102526 | 62 | 90 | 0.0 | 0.0 | 0.00 | 0.01 | 0.01 | 99 | 1017.7 |
| 20260902102023 | 62 | 90 | 0.0 | 0.0 | 0.00 | 0.01 | 0.01 | 99 | 1017.9 |
| 20260902101518 | 62 | 97 | 0.9 | 1.7 | 0.00 | 0.01 | 0.01 | 99 | 1017.8 |
| 20260902101016 | 62 | 113 | 0.0 | 0.0 | 0.00 | 0.01 | 0.01 | 99 | 1017.6 |
| 20260902100511 | 62 | 64 | 0.0 | 0.0 | 0.00 | 0.01 | 0.01 | 99 | 1017.6 |
| 20260902100006 | 62 | 105 | 0.9 | 0.9 | 0.00 | 0.01 | 0.01 | 99 | 1017.5 |
| 20260902095500 | 62 | 165 | 0.9 | 0.9 | 0.00 | 0.01 | 0.01 | 99 | 1017.5 |
| 20260902094959 | 62 | 87 | 0.0 | 0.9 | 0.00 | 0.01 | 0.01 | 99 | 1017.5 |
| 20260902094455 | 62 | 92 | 0.0 | 0.9 | 0.00 | 0.01 | 0.01 | 99 | 1017.6 |
| 20260902093950 | 62 | 92 | 0.9 | 0.9 | 0.00 | 0.01 | 0.01 | 99 | 1017.8 |
| 20260902093445 | 62 | 92 | 0.0 | 0.0 | 0.00 | 0.01 | 0.01 | 99 | 1017.8 |
| 20260902092944 | 62 | 115 | 0.0 | 0.9 | 0.00 | 0.01 | 0.01 | 99 | 1017.6 |
| 20260902092440 | 62 | 185 | 0.9 | 1.7 | 0.00 | 0.01 | 0.01 | 99 | 1017.7 |
| 20260902091939 | 62 | 126 | 0.0 | 0.0 | 0.00 | 0.01 | 0.01 | 99 | 1017.5 |
| 20260902091435 | 62 | 125 | 0.0 | 0.0 | 0.00 | 0.01 | 0.01 | 99 | 1017.5 |
| 20260902090931 | 62 | 146 | 0.9 | 0.9 | 0.00 | 0.01 | 0.01 | 99 | 1017.2 |
| 20260902090432 | 63 | 60 | 0.9 | 0.9 | 0.00 | 0.01 | 0.01 | 99 | 1017.3 |
| 20260902085930 | 63 | 95 | 0.0 | 0.9 | 0.00 | 0.01 | 0.01 | 99 | 1017.2 |
| 20260902085425 | 63 | 96 | 0.0 | 0.0 | 0.00 | 0.01 | 0.01 | 99 | 1017.1 |
| 20260902084921 | 63 | 96 | 0.0 | 0.9 | 0.00 | 0.01 | 0.01 | 99 | 1017.0 |
| 20260902084417 | 63 | 96 | 0.9 | 0.9 | 0.00 | 0.01 | 0.01 | 99 | 1016.9 |
| 20260902083912 | 63 | 90 | 0.9 | 0.9 | 0.00 | 0.01 | 0.01 | 99 | 1017.3 |
| 20260902083407 | 63 | 100 | 0.0 | 0.9 | 0.00 | 0.01 | 0.01 | 99 | 1017.3 |
| 20260902082902 | 63 | 94 | 0.0 | 0.0 | 0.00 | 0.01 | 0.01 | 99 | 1017.4 |
| 20260902082358 | 63 | 55 | 0.0 | 0.9 | 0.00 | 0.01 | 0.01 | 99 | 1017.3 |
| 20260902081854 | 63 | 72 | 0.0 | 0.0 | 0.00 | 0.01 | 0.01 | 99 | 1017.1 |
| 20260902081350 | 63 | 72 | 0.0 | 0.0 | 0.00 | 0.01 | 0.01 | 99 | 1017.1 |
| 20260902080845 | 63 | 72 | 0.0 | 0.0 | 0.00 | 0.01 | 0.01 | 99 | 1016.8 |
| 20260902080341 | 63 | 72 | 0.0 | 0.0 | 0.00 | 0.01 | 0.01 | 99 | 1016.7 |
| 20260902075840 | 63 | 73 | 0.0 | 0.0 | 0.00 | 0.01 | 0.01 | 99 | 1017.0 |
| 20260902075337 | 63 | 73 | 0.0 | 0.0 | 0.00 | 0.01 | 0.01 | 99 | 1016.9 |
| 20260902074832 | 63 | 73 | 0.0 | 0.0 | 0.00 | 0.01 | 0.01 | 99 | 1016.9 |
| 20260902074328 | 64 | 72 | 0.0 | 0.9 | 0.00 | 0.01 | 0.01 | 99 | 1017.1 |
| 20260902073828 | 64 | 58 | 0.0 | 0.9 | 0.00 | 0.01 | 0.01 | 99 | 1016.8 |
| 20260902073324 | 64 | 79 | 0.0 | 0.0 | 0.07 | 0.01 | 0.01 | 99 | 1016.8 |
| 20260902072820 | 64 | 79 | 0.0 | 0.9 | 0.07 | 0.01 | 0.01 | 99 | 1016.8 |
| 20260902072315 | 64 | 80 | 0.0 | 0.0 | 0.00 | 0.00 | 0.00 | 99 | 1016.8 |
| 20260902071812 | 64 | 80 | 0.0 | 0.0 | 0.00 | 0.00 | 0.00 | 99 | 1016.7 |
| 20260902071306 | 64 | 80 | 0.0 | 0.9 | 0.00 | 0.00 | 0.00 | 99 | 1016.9 |
| 20260902070803 | 64 | 80 | 0.0 | 0.9 | 0.00 | 0.00 | 0.00 | 99 | 1016.7 |
| 20260902070302 | 64 | 80 | 0.0 | 0.0 | 0.00 | 0.00 | 0.00 | 99 | 1016.9 |
| 20260902065800 | 64 | 80 | 0.9 | 0.9 | 0.00 | 0.00 | 0.00 | 99 | 1016.7 |
| 20260902065251 | 64 | 80 | 0.9 | 0.9 | 0.00 | 0.00 | 0.00 | 99 | 1016.6 |
| 20260902064747 | 64 | 78 | 0.0 | 0.9 | 0.00 | 0.00 | 0.00 | 99 | 1016.8 |
| 20260902064242 | 64 | 80 | 0.0 | 0.9 | 0.00 | 0.00 | 0.00 | 99 | 1016.6 |
| 20260902063737 | 64 | 70 | 0.9 | 0.9 | 0.00 | 0.00 | 0.00 | 99 | 1016.7 |
| 20260902063237 | 64 | 86 | 0.9 | 0.9 | 0.00 | 0.00 | 0.00 | 99 | 1016.6 |
| 20260902062732 | 64 | 86 | 1.7 | 1.7 | 0.00 | 0.00 | 0.00 | 99 | 1016.6 |
| 20260902062227 | 64 | 79 | 0.9 | 0.9 | 0.00 | 0.00 | 0.00 | 99 | 1016.8 |
| 20260902061725 | 65 | 80 | 0.9 | 0.9 | 0.00 | 0.00 | 0.00 | 99 | 1016.9 |
| 20260902061221 | 65 | 70 | 0.9 | 0.9 | 0.00 | 0.00 | 0.00 | 99 | 1016.7 |
| 20260902060718 | 65 | 131 | 0.0 | 0.0 | 0.00 | 0.00 | 0.00 | 99 | 1016.8 |
| 20260902060214 | 65 | 25 | 0.0 | 0.0 | 0.00 | 0.00 | 0.00 | 99 | 1016.8 |
| 20260902055709 | 65 | 25 | 0.0 | 0.0 | 0.00 | 0.00 | 0.00 | 99 | 1016.8 |
| 20260902055205 | 65 | 25 | 0.0 | 0.0 | 0.00 | 0.00 | 0.00 | 99 | 1016.7 |
| 20260902054700 | 65 | 25 | 0.0 | 0.0 | 0.00 | 0.00 | 0.00 | 99 | 1017.0 |
| 20260902054155 | 66 | 58 | 0.0 | 0.0 | 0.00 | 0.00 | 0.00 | 99 | 1016.9 |
| 20260902053650 | 66 | 57 | 0.0 | 0.9 | 0.00 | 0.00 | 0.00 | 99 | 1016.8 |
| 20260902053145 | 66 | 57 | 0.0 | 0.0 | 0.00 | 0.00 | 0.00 | 99 | 1016.8 |
| 20260902052644 | 66 | 54 | 0.0 | 0.0 | 0.00 | 0.00 | 0.00 | 99 | 1016.8 |
| 20260902052140 | 66 | 46 | 0.0 | 0.9 | 0.00 | 0.00 | 0.00 | 99 | 1016.8 |
| 20260902051639 | 66 | 67 | 0.9 | 0.9 | 0.00 | 0.00 | 0.00 | 99 | 1016.6 |
| 20260902051133 | 66 | 71 | 0.0 | 0.0 | 0.00 | 0.00 | 0.00 | 99 | 1016.8 |
| 20260902050628 | 66 | 67 | 0.0 | 0.0 | 0.00 | 0.00 | 0.00 | 99 | 1016.7 |
| 20260902050123 | 66 | 260 | 1.7 | 3.5 | 0.00 | 0.00 | 0.00 | 99 | 1016.6 |
| 20260902045618 | 66 | 147 | 0.0 | 0.9 | 0.00 | 0.00 | 0.00 | 99 | 1016.6 |
| 20260902045115 | 67 | 149 | 0.0 | 0.9 | 0.00 | 0.00 | 0.00 | 99 | 1016.5 |
| 20260902044614 | 67 | 131 | 0.9 | 0.9 | 0.00 | 0.00 | 0.00 | 99 | 1016.7 |
| 20260902044110 | 67 | 124 | 0.0 | 0.9 | 0.00 | 0.00 | 0.00 | 99 | 1016.7 |
| 20260902043606 | 67 | 124 | 1.7 | 1.7 | 0.00 | 0.00 | 0.00 | 99 | 1016.5 |
| 20260902043100 | 67 | 41 | 0.9 | 0.9 | 0.00 | 0.00 | 0.00 | 99 | 1016.4 |
| 20260902042559 | 67 | 41 | 0.0 | 0.0 | 0.00 | 0.00 | 0.00 | 99 | 1016.7 |
| 20260902042055 | 67 | 123 | 0.9 | 0.9 | 0.00 | 0.00 | 0.00 | 99 | 1016.5 |
| 20260902041555 | 67 | 123 | 0.9 | 1.7 | 0.00 | 0.00 | 0.00 | 99 | 1016.6 |
| 20260902041049 | 68 | 123 | 0.9 | 0.9 | 0.00 | 0.00 | 0.00 | 99 | 1016.3 |
| 20260902040544 | 68 | 132 | 0.0 | 0.9 | 0.00 | 0.00 | 0.00 | 99 | 1016.3 |
| 20260902040039 | 68 | 122 | 0.0 | 0.0 | 0.00 | 0.43 | 0.43 | 99 | 1016.1 |
| 20260902035537 | 68 | 126 | 0.9 | 0.9 | 0.00 | 0.43 | 0.43 | 99 | 1016.2 |
| 20260902035033 | 68 | 126 | 0.0 | 0.0 | 0.00 | 0.43 | 0.43 | 99 | 1016.2 |
| 20260902034532 | 68 | 134 | 0.0 | 0.0 | 0.00 | 0.43 | 0.43 | 99 | 1016.1 |
| 20260902034031 | 68 | 134 | 0.9 | 0.9 | 0.00 | 0.43 | 0.43 | 99 | 1015.6 |
| 20260902033531 | 68 | 143 | 0.0 | 0.9 | 0.00 | 0.43 | 0.43 | 99 | 1016.2 |
| 20260902033026 | 69 | 125 | 0.9 | 0.9 | 0.00 | 0.43 | 0.43 | 99 | 1015.8 |
| 20260902032524 | 69 | 152 | 0.0 | 0.9 | 0.00 | 0.43 | 0.43 | 99 | 1015.7 |
| 20260902032020 | 69 | 110 | 0.0 | 0.0 | 0.00 | 0.43 | 0.43 | 99 | 1015.5 |
| 20260902031514 | 69 | 121 | 0.0 | 0.9 | 0.00 | 0.43 | 0.43 | 99 | 1015.6 |
| 20260902031010 | 69 | 122 | 0.0 | 0.9 | 0.00 | 0.43 | 0.43 | 99 | 1015.4 |
| 20260902030505 | 69 | 133 | 0.0 | 0.0 | 0.00 | 0.43 | 0.43 | 99 | 1015.4 |
| 20260902030005 | 69 | 133 | 0.0 | 0.0 | 0.00 | 0.43 | 0.43 | 99 | 1015.3 |
| 20260902025500 | 69 | 134 | 0.0 | 0.0 | 0.00 | 0.43 | 0.43 | 99 | 1015.2 |
| 20260902024954 | 69 | 133 | 0.0 | 0.0 | 0.00 | 0.43 | 0.43 | 99 | 1015.2 |
| 20260902024450 | 69 | 137 | 0.0 | 0.0 | 0.00 | 0.43 | 0.43 | 99 | 1015.1 |
| 20260902023944 | 69 | 138 | 0.9 | 0.9 | 0.00 | 0.43 | 0.43 | 99 | 1015.0 |
| 20260902023440 | 69 | 112 | 0.0 | 0.9 | 0.00 | 0.43 | 0.43 | 99 | 1015.1 |
| 20260902022939 | 69 | 112 | 0.0 | 0.0 | 0.00 | 0.43 | 0.43 | 99 | 1015.0 |
| 20260902022434 | 69 | 112 | 0.0 | 0.9 | 0.00 | 0.43 | 0.43 | 99 | 1014.8 |
| 20260902021930 | 70 | 109 | 0.9 | 0.9 | 0.00 | 0.43 | 0.43 | 99 | 1014.6 |
| 20260902021425 | 70 | 119 | 0.9 | 0.9 | 0.00 | 0.43 | 0.43 | 99 | 1014.7 |
| 20260902020920 | 70 | 119 | 0.9 | 0.9 | 0.00 | 0.43 | 0.43 | 99 | 1014.7 |
| 20260902020417 | 70 | 119 | 0.9 | 0.9 | 0.00 | 0.43 | 0.43 | 99 | 1014.6 |
| 20260902015912 | 70 | 119 | 0.0 | 0.0 | 0.00 | 0.43 | 0.43 | 99 | 1014.6 |
| 20260902015408 | 70 | 119 | 0.0 | 0.0 | 0.00 | 0.43 | 0.43 | 99 | 1014.8 |
| 20260902014903 | 70 | 119 | 0.0 | 0.0 | 0.00 | 0.43 | 0.43 | 99 | 1014.8 |
| 20260902014359 | 70 | 119 | 0.9 | 0.9 | 0.00 | 0.43 | 0.43 | 99 | 1014.9 |
| 20260902013858 | 70 | 124 | 0.0 | 0.0 | 0.00 | 0.43 | 0.43 | 99 | 1014.8 |
| 20260902013354 | 70 | 124 | 0.9 | 0.9 | 0.00 | 0.43 | 0.43 | 99 | 1014.9 |
| 20260902012850 | 71 | 124 | 0.0 | 0.0 | 0.00 | 0.43 | 0.43 | 99 | 1014.8 |
| 20260902012345 | 71 | 124 | 0.0 | 0.9 | 0.00 | 0.43 | 0.43 | 99 | 1015.1 |
| 20260902011841 | 71 | 124 | 0.9 | 0.9 | 0.00 | 0.43 | 0.43 | 99 | 1015.1 |
| 20260902011335 | 71 | 124 | 0.0 | 0.9 | 0.00 | 0.43 | 0.43 | 99 | 1014.6 |
| 20260902010834 | 71 | 136 | 0.9 | 0.9 | 0.00 | 0.43 | 0.43 | 99 | 1014.9 |
| 20260902010329 | 71 | 153 | 0.0 | 0.9 | 0.00 | 0.43 | 0.43 | 99 | 1014.8 |
| 20260902005828 | 71 | 129 | 0.0 | 0.0 | 0.00 | 0.43 | 0.43 | 99 | 1014.4 |
| 20260902005323 | 71 | 123 | 0.0 | 0.9 | 0.00 | 0.43 | 0.43 | 99 | 1014.3 |
| 20260902004819 | 71 | 123 | 0.9 | 0.9 | 0.00 | 0.43 | 0.43 | 99 | 1014.3 |
| 20260902004314 | 71 | 121 | 0.9 | 1.7 | 0.00 | 0.43 | 0.43 | 99 | 1014.2 |
| 20260902003814 | 71 | 121 | 0.0 | 0.9 | 0.00 | 0.43 | 0.43 | 99 | 1014.3 |
| 20260902003309 | 71 | 115 | 0.9 | 1.7 | 0.00 | 0.43 | 0.43 | 99 | 1014.1 |
| 20260902002805 | 71 | 118 | 0.0 | 0.9 | 0.00 | 0.43 | 0.43 | 99 | 1013.9 |
| 20260902002259 | 71 | 118 | 0.0 | 0.0 | 0.00 | 0.43 | 0.43 | 99 | 1013.6 |
| 20260902001754 | 71 | 118 | 0.0 | 0.0 | 0.00 | 0.43 | 0.43 | 99 | 1013.7 |
| 20260902001249 | 71 | 118 | 0.9 | 0.9 | 0.00 | 0.43 | 0.43 | 99 | 1013.7 |
| 20260902000743 | 71 | 118 | 0.9 | 0.9 | 0.00 | 0.43 | 0.43 | 99 | 1013.6 |
| 20260902000238 | 71 | 119 | 0.0 | 0.0 | 0.00 | 0.43 | 0.43 | 99 | 1013.4 |
| 20260901235733 | 72 | 118 | 0.0 | 0.0 | 0.00 | 0.43 | 0.43 | 99 | 1013.3 |
| 20260901235228 | 72 | 118 | 0.0 | 0.9 | 0.00 | 0.43 | 0.43 | 99 | 1013.4 |
| 20260901234728 | 72 | 118 | 0.0 | 0.9 | 0.00 | 0.43 | 0.43 | 99 | 1013.3 |
| 20260901234228 | 72 | 118 | 0.0 | 0.0 | 0.00 | 0.43 | 0.43 | 99 | 1013.1 |
| 20260901233722 | 73 | 118 | 0.0 | 0.0 | 0.00 | 0.43 | 0.43 | 99 | 1013.3 |
| 20260901233218 | 73 | 118 | 0.0 | 0.0 | 0.00 | 0.43 | 0.43 | 99 | 1013.0 |
| 20260901232713 | 73 | 118 | 0.0 | 0.0 | 0.00 | 0.43 | 0.43 | 99 | 1013.2 |
| 20260901232208 | 74 | 118 | 0.0 | 0.0 | 0.00 | 0.43 | 0.43 | 98 | 1013.3 |
| 20260901231705 | 74 | 118 | 0.0 | 0.0 | 0.00 | 0.43 | 0.43 | 98 | 1013.4 |
| 20260901231201 | 74 | 118 | 0.0 | 0.9 | 0.00 | 0.43 | 0.43 | 99 | 1013.6 |
| 20260901230656 | 74 | 118 | 0.0 | 0.0 | 0.00 | 0.43 | 0.43 | 99 | 1013.6 |
| 20260901230155 | 74 | 118 | 0.0 | 0.0 | 0.00 | 0.43 | 0.43 | 99 | 1013.8 |
| 20260901225651 | 74 | 118 | 0.0 | 0.0 | 0.00 | 0.43 | 0.43 | 99 | 1014.1 |
| 20260901225145 | 74 | 118 | 0.0 | 0.0 | 0.00 | 0.43 | 0.43 | 99 | 1013.8 |
| 20260901224642 | 74 | 118 | 0.0 | 0.0 | 0.00 | 0.43 | 0.43 | 98 | 1014.0 |
| 20260901224138 | 75 | 118 | 0.0 | 0.0 | 0.00 | 0.43 | 0.43 | 97 | 1013.9 |
| 20260901223633 | 75 | 118 | 0.0 | 0.0 | 0.00 | 0.43 | 0.43 | 97 | 1013.8 |
| 20260901223128 | 76 | 118 | 0.0 | 0.0 | 0.00 | 0.43 | 0.43 | 95 | 1013.4 |
| 20260901222624 | 76 | 118 | 0.0 | 0.0 | 0.00 | 0.43 | 0.43 | 94 | 1013.3 |
| 20260901222120 | 77 | 118 | 0.0 | 0.0 | 0.00 | 0.43 | 0.43 | 94 | 1013.1 |
| 20260901221615 | 77 | 118 | 0.0 | 0.0 | 0.00 | 0.43 | 0.43 | 93 | 1013.0 |
| 20260901221111 | 77 | 118 | 0.0 | 0.0 | 0.00 | 0.43 | 0.43 | 92 | 1012.8 |
| 20260901220610 | 77 | 118 | 0.0 | 0.9 | 0.00 | 0.43 | 0.43 | 92 | 1012.8 |
| 20260901220109 | 78 | 118 | 0.0 | 0.0 | 0.00 | 0.43 | 0.43 | 91 | 1013.0 |
| 20260901215608 | 78 | 171 | 0.0 | 0.0 | 0.00 | 0.43 | 0.43 | 92 | 1012.8 |
| 20260901215102 | 80 | 172 | 0.0 | 0.0 | 0.00 | 0.43 | 0.43 | 90 | 1012.8 |
| 20260901214601 | 80 | 173 | 0.9 | 1.7 | 0.00 | 0.43 | 0.43 | 88 | 1013.2 |
| 20260901214101 | 80 | 148 | 0.0 | 0.0 | 0.00 | 0.43 | 0.43 | 88 | 1013.1 |
| 20260901213555 | 80 | 159 | 0.9 | 0.9 | 0.00 | 0.43 | 0.43 | 89 | 1012.8 |
| 20260901213050 | 80 | 87 | 0.0 | 0.0 | 0.00 | 0.43 | 0.43 | 89 | 1013.1 |
| 20260901212549 | 79 | 85 | 0.0 | 0.0 | 0.00 | 0.43 | 0.43 | 91 | 1013.2 |
| 20260901212046 | 79 | 123 | 0.0 | 0.0 | 0.00 | 0.43 | 0.43 | 91 | 1013.3 |
| 20260901211541 | 80 | 115 | 0.9 | 0.9 | 0.00 | 0.43 | 0.43 | 89 | 1013.1 |
| 20260901211038 | 79 | 116 | 0.9 | 0.9 | 0.00 | 0.43 | 0.43 | 91 | 1012.7 |
| 20260901210532 | 79 | 116 | 0.0 | 0.0 | 0.00 | 0.43 | 0.43 | 91 | 1012.8 |
| 20260901210029 | 78 | 119 | 0.0 | 0.0 | 0.00 | 0.43 | 0.43 | 92 | 1013.2 |
| 20260901205523 | 78 | 119 | 0.0 | 0.9 | 0.00 | 0.43 | 0.43 | 93 | 1012.8 |
| 20260901205018 | 78 | 119 | 0.0 | 0.0 | 0.00 | 0.43 | 0.43 | 92 | 1012.8 |
| 20260901204515 | 79 | 122 | 0.0 | 0.0 | 0.00 | 0.43 | 0.43 | 93 | 1012.7 |
| 20260901204009 | 80 | 121 | 0.9 | 0.9 | 0.00 | 0.43 | 0.43 | 89 | 1012.7 |
| 20260901203503 | 81 | 121 | 0.0 | 0.0 | 0.00 | 0.43 | 0.43 | 87 | 1012.8 |
| 20260901202958 | 81 | 105 | 0.0 | 0.0 | 0.00 | 0.43 | 0.43 | 86 | 1012.7 |
| 20260901202453 | 81 | 98 | 0.9 | 0.9 | 0.00 | 0.43 | 0.43 | 87 | 1013.0 |
| 20260901201943 | 80 | 173 | 0.9 | 0.9 | 0.00 | 0.43 | 0.43 | 89 | 1012.5 |
| 20260901201438 | 79 | 173 | 0.0 | 0.9 | 0.00 | 0.43 | 0.43 | 91 | 1012.7 |
| 20260901200932 | 78 | 173 | 0.0 | 0.0 | 0.00 | 0.43 | 0.43 | 92 | 1012.8 |
| 20260901200426 | 79 | 173 | 0.0 | 0.0 | 0.00 | 0.43 | 0.43 | 93 | 1013.1 |
| 20260901195920 | 79 | 173 | 0.0 | 0.0 | 0.00 | 0.43 | 0.43 | 93 | 1013.0 |
| 20260901195419 | 79 | 173 | 0.0 | 0.0 | 0.00 | 0.43 | 0.43 | 90 | 1012.8 |